GFSSGP_925_rhum_261.txt.gz
RH
33 33 21 15 14 10 8 5 3 4 5 5 4 3 6 8 13 29 24 26 24 40 60 52 56 60 66 70 61 62 62 61 56 54 55 60 66 65 62 56 48 31 44 52 53 53 52 52 50
33 20 17 14 15 10 8 5 5 4 7 7 7 8 8 8 8 26 26 31 29 44 60 71 54 55 62 71 64 65 64 60 55 55 59 61 64 62 56 48 41 32 50 60 67 67 63 55 53
35 21 16 15 14 12 7 6 5 4 6 7 10 10 14 11 8 14 30 32 31 42 54 72 52 55 56 66 70 67 66 59 53 58 58 56 62 53 44 44 35 36 52 62 65 62 62 60 55
23 17 16 19 15 9 8 7 7 6 5 8 9 10 12 20 21 19 35 31 32 41 45 61 51 56 56 68 74 70 67 57 55 60 53 50 50 41 38 43 38 47 59 66 63 62 62 64 57
23 17 20 17 15 10 8 8 7 8 7 8 8 9 11 18 30 32 35 32 35 39 46 60 54 56 56 65 73 72 65 56 54 58 52 46 43 40 42 44 49 56 62 66 65 60 57 65 58
20 17 20 16 13 10 9 9 10 9 7 8 8 7 10 30 28 32 37 35 36 39 64 82 58 55 58 62 69 71 64 57 53 54 50 45 43 37 43 50 59 61 66 67 65 61 53 62 60
22 18 19 14 12 11 10 9 11 10 8 7 6 7 15 29 38 37 39 39 39 42 66 83 90 62 59 60 63 69 62 59 53 49 47 42 38 40 47 55 63 67 68 68 64 61 52 54 64
20 18 19 16 16 13 9 11 10 11 9 6 6 8 12 33 44 41 41 42 42 45 62 73 80 93 95 68 60 66 66 56 50 46 45 39 35 47 52 51 64 69 66 65 64 60 52 47 64
17 26 24 19 15 13 10 13 10 9 9 8 7 9 23 35 42 41 43 45 45 50 58 61 67 81 90 94 73 67 65 50 49 48 44 38 63 73 66 70 50 61 60 60 59 54 48 43 58
21 24 20 13 13 13 12 13 13 12 11 11 9 11 24 31 40 41 41 46 48 52 54 53 57 68 77 70 88 79 71 68 68 71 58 56 57 61 58 74 53 53 60 60 57 49 40 38 46
19 22 16 13 10 12 15 15 14 14 14 11 11 10 16 26 31 42 41 44 48 51 52 48 53 59 61 49 71 61 65 62 62 63 67 48 56 55 55 78 73 75 58 64 56 42 45 44 33
19 16 14 14 13 13 15 15 18 16 14 11 11 10 10 14 17 29 39 39 44 48 50 46 51 58 57 48 56 51 55 56 54 57 63 48 54 54 49 56 55 61 62 49 48 42 39 43 40
15 14 13 14 15 13 13 16 18 17 15 13 12 13 13 12 13 18 30 38 40 44 47 46 50 61 62 53 51 49 48 51 49 54 63 48 51 55 48 45 44 44 45 43 43 37 43 47 46
15 15 17 18 19 18 20 19 16 15 12 14 14 14 14 14 14 15 23 30 38 40 45 47 49 60 63 54 52 52 49 49 49 52 59 56 52 56 47 44 40 39 37 38 40 38 43 43 47
14 21 18 15 12 13 12 18 21 16 13 12 12 13 13 13 14 14 14 14 24 37 41 49 52 57 63 57 56 53 51 50 52 52 59 61 55 55 48 45 43 38 37 38 40 42 41 42 47
13 11 11 6 5 6 9 14 10 13 14 13 11 11 12 12 12 12 13 13 13 32 38 49 51 57 65 60 57 54 53 54 54 53 58 66 59 56 55 47 46 38 39 40 40 43 43 47 51
12 12 8 6 4 4 9 12 8 10 14 16 13 10 10 11 10 12 13 12 12 24 39 45 54 56 65 63 56 56 54 57 55 55 57 68 63 56 56 46 46 42 41 43 42 44 43 47 51
14 11 9 9 6 5 7 8 8 10 13 15 14 12 11 12 11 10 12 12 12 21 35 45 54 58 66 66 62 58 55 59 55 56 58 65 66 60 61 44 45 47 43 44 42 41 42 46 48
16 17 16 12 9 10 10 9 8 9 11 14 14 13 12 12 10 10 9 11 12 15 28 48 54 60 68 70 67 60 59 60 58 56 58 65 70 64 64 46 46 52 45 42 45 44 45 48 48
23 23 21 16 12 13 12 12 10 9 8 8 11 14 14 13 12 11 12 13 13 13 24 41 52 63 67 71 69 63 61 58 58 57 61 67 75 68 66 56 47 54 48 46 48 48 46 50 50
26 27 24 21 17 16 18 19 16 12 10 9 9 10 11 15 15 13 12 12 14 15 25 38 49 63 68 68 69 64 58 56 58 59 65 70 74 73 68 64 50 54 52 50 54 55 51 53 52
33 22 24 24 23 29 16 24 14 10 8 7 7 9 11 11 13 15 15 12 14 18 28 39 46 58 70 68 65 60 53 55 57 64 74 71 75 76 71 65 61 56 60 50 58 62 56 49 51
31 24 26 27 28 27 24 25 18 12 12 10 9 9 8 9 11 12 13 14 12 15 34 44 49 58 64 73 66 60 56 53 55 68 78 82 74 77 76 73 66 61 63 55 59 61 68 57 48
24 28 28 26 30 52 29 24 20 15 12 10 8 7 9 13 13 12 12 12 13 15 37 46 52 53 60 66 72 61 60 54 56 67 69 80 80 75 77 74 72 67 66 63 61 66 72 64 54
39 49 65 52 61 65 26 24 17 13 20 15 16 16 12 8 13 14 12 11 14 14 27 46 52 51 56 62 68 67 62 62 58 62 66 71 79 74 76 77 77 74 70 68 65 69 73 74 63
30 38 82 86 60 42 20 23 29 33 31 31 33 36 40 45 44 17 14 15 12 15 16 40 44 52 52 59 66 70 66 65 61 61 61 64 68 75 70 78 77 78 76 72 68 70 75 76 74
32 52 42 64 50 57 27 28 36 40 27 28 30 36 43 49 53 50 30 16 15 14 17 19 41 48 52 55 64 69 70 68 67 60 61 65 63 69 69 76 80 80 79 77 72 70 72 74 78
41 33 74 64 73 66 31 29 54 38 43 24 34 39 46 52 54 51 50 32 16 15 14 19 28 43 51 53 63 71 74 74 70 69 66 63 64 64 69 74 81 81 82 78 76 72 70 74 76
38 51 91 61 62 88 66 35 24 56 28 26 36 38 48 60 63 57 56 37 30 17 16 18 23 38 48 52 59 69 74 77 76 72 70 67 65 66 65 72 78 82 81 80 77 75 72 72 75
25 78 58 72 68 60 55 43 18 24 23 33 37 45 52 67 72 60 61 39 32 27 17 16 21 24 44 50 55 67 75 78 79 78 71 71 69 67 68 65 73 78 80 79 79 77 72 72 73

GFSSGP_925_rhum_267.txt.gz
RH
26 34 48 39 33 31 27 18 10 10 9 9 8 8 8 22 38 52 35 36 39 53 53 51 48 47 46 51 53 52 48 44 47 47 49 53 59 42 31 40 44 45 44 40 35 36 50 61 70
29 30 38 32 33 36 29 13 11 10 8 8 9 9 15 34 30 50 59 51 29 45 56 56 52 51 50 52 54 55 49 46 51 53 54 59 59 43 33 45 53 51 52 48 37 37 51 56 62
38 42 34 34 33 34 25 13 8 7 6 8 11 9 16 36 32 35 53 54 41 43 61 61 57 55 53 55 55 57 50 48 55 58 58 59 52 45 43 53 56 59 58 51 43 38 48 54 56
38 34 30 33 33 25 18 15 9 9 8 8 9 11 25 28 32 44 51 44 37 50 62 65 62 58 57 57 58 58 52 47 54 59 62 61 54 46 47 62 67 69 63 58 51 41 49 50 53
30 36 40 37 30 21 16 13 8 9 9 8 7 10 33 32 31 43 48 38 37 64 58 69 67 63 61 61 60 60 55 48 52 55 59 62 56 49 47 64 71 67 63 60 55 50 49 49 52
39 32 38 38 28 19 14 12 10 11 10 10 8 8 31 31 30 41 48 44 36 60 60 69 73 67 66 64 62 61 58 49 51 52 57 60 53 47 43 57 68 65 61 60 61 54 53 54 58
36 41 41 34 28 22 17 12 14 12 12 12 9 12 51 42 33 36 45 49 48 52 59 74 87 75 71 69 65 63 60 50 50 48 49 47 45 46 43 55 66 65 61 56 60 55 53 53 53
26 33 36 32 29 24 15 14 11 12 12 9 9 16 63 42 34 36 48 54 55 56 52 68 95 99 93 77 70 67 61 51 50 47 42 40 38 48 50 54 60 63 61 57 53 60 52 50 55
26 40 43 35 28 22 16 16 12 11 11 11 10 43 45 38 36 37 65 78 76 70 57 57 93 98 99 81 77 72 65 53 52 48 40 40 38 46 55 55 61 62 60 58 54 51 57 49 50
32 41 34 24 20 19 15 16 15 15 16 15 14 31 35 36 38 42 51 78 86 86 78 61 74 99 99 97 84 79 72 60 58 52 42 35 37 41 46 54 63 64 61 59 55 50 50 49 47
20 35 28 23 19 20 17 16 14 16 17 16 18 15 18 35 38 45 45 60 77 74 80 74 73 85 95 100 94 84 76 67 62 52 44 36 37 46 46 52 63 66 64 56 50 46 43 45 44
20 15 15 18 16 16 17 15 17 14 16 15 15 16 15 27 39 40 46 45 68 72 72 72 80 87 93 94 97 89 78 73 65 54 44 49 42 58 59 55 51 56 55 54 49 40 34 38 39
13 14 9 10 11 12 14 19 19 18 15 13 13 13 16 18 17 31 35 45 49 68 68 68 73 86 90 91 90 92 83 74 67 54 44 59 56 71 60 60 53 45 46 48 44 36 31 41 43
15 14 14 12 13 13 14 15 18 16 17 16 16 15 15 15 16 15 15 20 49 57 64 66 70 70 83 87 88 91 82 75 68 56 44 62 60 67 60 63 58 42 40 40 40 32 36 43 47
17 19 15 13 13 13 13 17 17 14 13 13 13 16 15 16 13 14 13 15 46 52 56 61 66 68 67 84 81 83 79 74 71 60 46 58 62 56 66 65 55 40 41 39 42 39 41 47 46
23 21 24 14 12 10 11 13 11 11 12 13 12 13 14 15 14 11 10 12 13 50 58 62 68 71 59 70 72 71 69 67 64 65 51 54 65 56 55 65 53 46 50 46 46 43 45 44 46
25 29 23 19 13 13 12 13 10 8 7 7 8 11 14 17 15 11 10 9 12 14 59 58 72 67 57 61 64 59 58 58 59 65 56 47 66 56 51 56 50 45 50 46 45 45 44 43 44
38 32 26 24 18 15 16 16 13 11 10 10 10 11 16 17 17 14 11 10 10 11 48 62 62 65 60 55 64 55 55 56 54 63 59 47 63 59 58 51 50 45 46 42 44 43 42 42 44
25 26 26 21 17 18 19 18 16 12 11 12 12 11 10 12 15 10 10 11 13 10 12 52 58 70 68 62 71 59 63 59 57 56 60 56 58 62 62 50 52 43 46 41 41 42 42 44 47
25 27 26 21 18 22 23 22 17 14 14 13 13 13 12 11 10 8 7 8 9 14 14 37 56 71 70 65 63 64 59 60 60 58 63 57 54 58 64 53 52 49 46 42 41 43 43 44 53
27 27 30 34 28 22 25 27 21 17 16 14 12 10 10 11 11 10 8 8 8 10 13 35 55 68 69 68 60 67 62 65 61 65 61 64 59 55 55 62 53 54 45 45 42 42 45 45 48
34 25 30 43 50 64 34 36 22 17 17 18 17 19 19 16 17 15 11 9 8 9 10 16 54 60 68 69 63 65 68 63 68 63 66 68 63 59 57 62 55 57 48 46 45 43 45 44 51
45 31 42 47 50 51 41 39 24 18 45 40 29 33 39 42 44 47 47 46 35 33 29 13 12 56 66 70 67 65 62 64 61 63 64 72 70 63 60 58 61 56 56 47 47 47 44 46 48
28 34 41 48 58 81 41 76 62 75 75 44 34 31 32 43 45 46 48 51 51 52 52 48 33 14 54 72 69 68 62 63 60 58 66 71 80 74 68 65 60 54 62 54 48 48 46 45 47
32 54 90 90 84 82 48 61 94 96 57 47 53 49 42 44 48 51 57 60 58 59 59 58 53 44 32 62 71 69 67 63 61 58 64 66 83 84 78 71 72 62 59 65 52 52 50 47 47
35 49 91 95 92 73 39 41 99 69 58 53 47 41 54 51 54 57 60 66 65 65 67 66 65 56 41 59 62 70 70 68 63 62 63 68 70 86 82 80 78 72 65 65 62 55 56 53 50
42 76 58 83 64 80 46 72 96 38 33 37 40 53 59 63 63 65 66 72 70 73 70 70 65 52 50 50 63 68 72 71 68 62 65 67 69 74 86 85 81 80 76 69 70 66 63 66 58
39 38 82 88 95 94 54 53 88 37 28 42 56 66 67 66 66 70 69 75 74 73 70 68 75 78 81 70 48 76 71 74 71 70 63 66 71 76 82 86 88 85 82 75 74 74 71 71 77
44 90 85 84 94 96 92 64 68 35 29 52 68 64 72 73 70 70 70 77 76 75 72 72 76 79 81 83 84 62 96 78 75 72 70 66 76 80 80 82 87 89 89 85 79 78 76 75 78
77 87 60 96 89 85 78 65 29 30 26 49 73 69 74 72 66 72 74 78 80 77 72 77 79 81 84 85 93 75 58 87 68 73 71 68 78 82 84 83 80 86 89 91 87 81 80 80 79

GFSSGP_925_rhum_270.txt.gz
RH
28 30 34 35 32 35 32 23 12 12 10 9 10 13 30 32 38 47 57 48 48 57 52 48 39 40 42 41 39 36 38 39 42 48 47 32 28 31 36 39 39 37 36 48 63 70 73 76 83
30 36 36 38 38 39 32 19 13 10 8 9 10 19 36 42 50 68 71 54 46 52 56 49 42 43 44 44 40 39 39 41 45 53 53 37 30 38 44 45 43 36 34 46 62 70 77 82 86
32 42 39 37 42 39 32 18 18 9 9 10 12 20 34 43 48 56 62 68 56 55 57 52 45 46 48 47 43 41 40 43 47 56 54 41 32 44 52 53 49 40 34 46 57 61 63 64 64
30 38 36 37 37 30 23 21 18 13 8 8 10 30 34 33 38 51 64 59 65 68 56 56 49 50 50 52 48 42 42 44 47 54 51 44 37 50 55 58 53 47 38 39 54 57 58 59 64
33 41 45 42 38 26 21 18 15 11 10 10 10 37 41 46 44 54 56 56 58 72 58 60 54 54 53 54 52 46 44 45 48 53 52 45 40 54 59 64 60 54 46 41 50 54 57 63 66
38 39 44 42 34 25 20 17 16 14 13 11 10 27 46 55 59 70 60 61 49 59 62 66 62 59 58 56 56 50 46 46 47 49 52 46 40 52 57 65 62 59 51 46 50 53 58 61 63
36 46 47 38 35 29 20 16 16 16 14 12 10 47 50 46 57 63 65 61 59 57 63 74 73 66 64 60 58 55 48 49 47 47 47 42 40 44 57 66 63 61 56 52 52 53 57 61 66
35 40 38 36 36 34 19 18 16 15 16 12 11 59 58 47 54 59 63 69 64 60 59 78 81 79 72 69 63 60 51 53 50 45 41 36 41 44 57 65 61 58 57 54 51 52 55 59 66
29 49 50 37 31 27 19 19 15 15 16 15 24 49 47 51 61 69 81 84 82 84 73 74 100 95 81 76 72 65 56 54 56 48 41 38 41 42 54 62 64 60 56 55 52 48 49 57 61
36 48 39 30 26 25 21 20 17 16 17 18 26 31 36 51 71 78 88 97 98 98 91 78 95 98 99 90 81 75 64 64 61 56 46 41 40 36 44 59 64 61 58 54 52 51 47 51 56
22 40 33 28 27 16 19 18 17 16 18 16 19 16 16 31 56 75 81 86 86 80 92 83 84 99 97 98 88 83 73 67 66 54 43 40 46 42 43 57 66 62 59 56 51 48 47 48 52
16 16 13 12 11 13 15 16 15 18 16 17 16 16 16 17 27 44 76 82 86 87 73 66 71 90 98 100 100 93 80 72 68 60 44 40 47 53 51 49 59 58 54 50 47 44 44 43 45
14 18 16 15 14 13 13 15 16 17 18 16 13 15 15 16 16 16 36 75 80 81 78 68 66 74 97 100 98 100 84 74 70 63 52 40 40 51 54 51 51 52 52 44 40 37 35 38 38
21 20 19 17 14 13 14 12 15 14 15 13 13 12 15 17 16 15 26 55 77 77 82 79 78 74 75 89 100 100 89 75 69 65 55 46 39 40 46 54 50 51 48 42 38 31 31 40 44
21 22 21 16 13 14 13 13 12 13 12 12 12 12 11 16 14 15 13 18 48 74 71 76 78 79 84 70 84 88 89 80 69 65 56 51 52 43 42 49 50 42 43 40 38 33 33 41 46
26 24 29 20 17 14 12 18 12 12 11 11 10 12 11 11 14 12 11 12 17 60 76 85 90 83 85 77 75 80 83 81 72 66 56 49 66 53 57 53 54 46 37 39 37 35 36 45 46
36 41 34 28 19 18 15 21 15 14 13 12 12 12 12 13 15 13 10 12 12 24 71 80 75 78 79 85 81 77 72 77 74 67 58 47 58 65 59 58 55 56 39 37 41 41 43 46 46
46 36 30 29 21 19 23 24 21 18 16 15 15 14 13 12 13 11 11 9 10 14 60 71 70 79 74 79 86 87 81 75 72 67 60 50 51 66 60 59 61 56 41 45 47 46 44 45 46
26 29 32 26 25 29 28 28 22 21 18 19 18 18 15 14 11 9 8 8 7 9 26 68 76 75 83 85 83 81 79 78 77 69 57 50 46 65 66 62 57 60 49 49 46 49 47 48 44
28 31 33 28 36 33 34 30 23 20 18 19 36 42 44 47 44 38 40 44 33 15 14 27 66 73 78 81 75 70 71 69 65 67 59 49 51 53 66 64 55 57 49 48 50 48 51 46 44
39 34 39 37 40 31 40 36 31 25 18 32 32 36 44 48 48 45 47 52 52 54 48 34 27 57 74 73 74 68 69 68 71 72 66 52 54 48 66 63 59 54 50 50 50 46 47 47 46
58 37 37 44 52 60 40 62 31 24 50 41 43 47 46 49 49 48 51 57 59 62 60 50 39 37 71 74 75 74 66 70 69 66 70 69 57 59 52 63 61 54 52 49 48 45 43 43 49
54 33 40 43 48 57 47 62 49 63 71 56 53 49 49 49 53 55 56 62 66 65 66 66 57 38 47 71 73 79 68 64 66 69 66 75 70 62 55 62 62 57 54 51 48 47 44 43 49
28 36 49 54 65 89 59 51 91 98 100 69 45 51 55 56 58 58 63 68 72 72 73 73 69 62 50 50 69 74 77 69 69 67 72 79 78 71 62 62 66 60 57 55 52 47 44 43 47
33 69 92 82 84 81 49 45 98 97 86 85 49 54 57 65 63 67 70 73 75 76 76 73 76 75 72 66 54 72 74 77 70 69 69 76 81 79 75 68 68 69 62 61 58 53 48 45 46
42 58 92 97 97 73 41 49 93 71 65 75 52 53 55 65 67 71 70 75 78 77 76 76 78 81 82 76 64 54 76 77 79 71 70 71 78 81 74 75 74 74 69 70 62 60 55 52 49
46 72 47 91 76 90 58 97 99 52 26 36 55 56 64 67 69 73 72 76 80 78 77 76 80 82 84 78 88 74 50 75 75 79 72 70 68 79 82 80 76 75 73 71 70 67 65 62 53
40 52 84 90 96 96 67 60 84 39 32 27 68 66 74 72 70 72 71 76 76 79 79 75 79 83 85 87 90 95 83 53 77 75 78 71 71 70 87 85 83 79 79 73 75 72 72 70 66
82 86 82 83 93 96 93 66 55 38 28 35 77 73 80 82 77 66 68 76 76 78 79 77 76 80 85 89 90 99 98 76 62 87 88 80 71 72 78 90 86 83 84 81 79 77 74 77 73
60 78 63 93 81 86 82 65 31 27 26 31 81 82 81 74 78 72 73 70 74 79 74 78 73 75 82 86 91 97 100 99 96 87 77 82 90 67 73 88 93 87 87 86 84 82 79 79 80

GFSSGP_925_rhum_276.txt.gz
RH
28 36 37 26 24 31 30 22 19 25 19 12 20 25 36 47 46 54 76 71 46 53 60 58 48 45 37 34 33 37 40 40 41 39 34 32 37 43 63 90 93 98 97 98 99 99 99 84 86
29 37 26 35 32 30 29 24 28 23 18 16 15 38 45 55 71 79 77 74 42 47 55 57 47 42 37 36 36 36 36 34 33 29 30 34 36 38 58 87 88 89 99 99 99 98 77 77 78
30 38 34 43 47 37 34 27 28 22 17 12 26 38 43 63 73 72 66 70 45 46 50 55 44 38 36 36 37 37 34 31 28 28 30 34 36 37 51 76 87 89 93 98 92 77 73 72 72
33 34 40 42 37 30 27 27 25 19 16 16 28 46 46 71 63 64 73 58 41 46 49 53 45 37 36 36 36 40 37 30 27 29 36 38 36 35 49 67 79 83 84 82 76 65 62 65 72
32 39 49 49 42 34 27 24 22 20 18 18 37 50 55 87 78 66 79 75 44 49 49 52 46 40 39 38 37 40 41 33 28 34 42 43 38 34 43 58 66 71 70 63 63 65 66 71 74
41 40 46 44 39 33 26 23 20 19 18 19 20 50 75 85 94 92 83 74 57 57 57 53 50 44 40 40 39 39 41 37 28 38 44 46 45 35 37 54 59 60 60 62 64 61 63 70 73
40 44 48 41 37 32 26 22 20 22 18 28 26 63 71 90 98 96 86 76 68 59 64 61 57 50 44 42 43 40 40 40 34 35 46 48 49 40 37 51 55 57 58 64 64 60 60 62 59
40 39 39 39 39 37 17 21 20 20 17 20 50 83 73 87 97 99 96 86 78 71 66 67 63 57 52 48 48 44 42 42 40 34 45 51 54 49 44 39 48 54 56 64 64 58 58 58 51
33 46 46 42 38 25 15 19 16 18 17 20 22 67 86 99 92 99 98 98 93 86 74 68 70 65 58 53 56 54 50 47 46 42 44 52 56 58 52 47 48 53 56 63 65 61 58 59 57
39 47 40 19 17 15 15 16 17 18 16 16 17 15 63 82 90 96 92 92 93 98 88 77 73 69 66 63 63 62 60 57 52 50 48 50 54 60 60 56 52 53 57 62 64 66 64 64 66
19 29 19 16 18 15 14 13 17 16 17 15 20 17 20 27 71 74 92 90 90 92 95 100 98 76 74 71 69 70 69 65 60 53 49 52 54 64 60 60 58 55 58 60 64 65 66 65 65
22 20 19 17 17 15 14 14 15 16 16 15 14 12 14 15 18 19 76 83 90 97 94 95 99 100 87 74 74 71 74 75 70 60 52 56 54 65 64 60 57 56 54 56 60 63 63 64 62
23 24 20 19 17 16 14 15 17 18 17 14 13 13 14 13 13 14 15 30 82 76 89 94 99 98 100 88 78 75 78 79 75 67 56 51 52 67 70 64 57 53 52 53 55 58 60 61 57
24 23 20 21 21 18 16 17 18 18 18 16 18 20 23 32 33 36 38 29 44 90 80 76 99 99 99 100 87 80 80 78 84 68 60 48 48 49 69 66 62 53 51 51 51 51 52 54 52
23 25 26 25 23 22 19 21 24 21 19 25 29 38 45 46 47 49 51 54 53 26 83 90 79 96 98 99 100 95 99 89 73 63 62 52 46 47 43 52 61 57 53 51 50 49 48 46 46
31 32 35 26 29 24 20 31 24 22 25 41 44 49 48 47 49 50 50 55 58 49 47 91 96 100 100 99 98 99 99 100 85 64 61 60 47 44 46 49 55 56 55 54 49 43 45 42 42
38 40 35 31 32 28 27 32 26 24 32 47 50 54 52 52 51 53 54 59 62 58 61 75 100 100 100 100 99 99 100 99 100 80 63 61 56 45 43 45 45 52 58 56 54 45 41 38 40
41 39 35 35 31 38 37 37 34 28 46 51 53 49 54 57 56 55 59 60 62 64 61 64 88 100 100 100 99 99 99 100 100 94 76 63 60 52 47 44 42 45 54 59 59 52 45 39 39
34 40 42 37 32 39 40 37 36 31 47 60 60 56 59 60 56 58 64 67 66 66 70 71 62 68 98 100 99 98 100 100 99 100 93 82 70 61 52 48 44 46 47 49 53 52 51 49 43
45 50 51 43 38 35 41 40 40 54 59 60 63 59 65 65 61 62 67 72 74 78 77 77 78 77 69 76 99 100 100 100 100 99 98 96 80 69 59 48 42 42 51 50 49 52 54 51 51
50 42 44 47 44 35 41 46 80 62 62 60 64 63 60 71 69 67 70 74 78 79 80 80 82 79 78 83 79 99 100 100 99 99 95 90 86 79 70 62 56 44 49 53 51 55 53 52 54
56 35 37 43 49 53 45 70 62 84 71 73 70 75 70 75 70 70 72 76 79 82 79 79 82 74 70 72 90 100 96 93 94 92 92 91 90 90 84 78 71 61 53 63 56 55 64 54 55
44 36 41 43 54 58 54 67 57 81 87 76 75 70 66 74 75 75 75 77 77 79 81 81 78 73 74 70 78 90 98 96 87 88 88 89 88 85 88 80 79 69 63 66 63 61 66 52 54
36 46 50 65 74 88 62 58 61 88 86 74 62 65 63 62 74 74 76 77 78 75 78 82 77 78 76 77 75 82 92 95 99 89 84 84 84 86 84 86 81 78 70 66 65 64 65 60 53
47 66 79 63 84 78 58 66 64 74 66 54 41 53 62 61 78 80 77 76 75 74 76 81 77 79 80 81 82 86 88 98 99 91 99 87 84 86 83 79 85 82 74 68 72 71 68 66 62
45 67 84 71 97 83 55 68 79 63 56 28 29 42 62 71 79 81 75 68 72 71 73 75 74 74 78 83 84 88 91 99 99 99 98 100 91 83 80 83 77 78 81 76 77 75 67 72 67
47 74 56 77 76 85 69 68 75 69 62 27 32 28 41 77 76 85 74 68 66 67 70 74 76 72 66 81 85 89 89 97 98 98 100 98 98 92 85 86 84 81 80 82 83 83 77 74 71
50 56 73 90 99 98 73 60 76 57 41 34 34 34 33 78 76 73 76 70 65 66 68 67 72 79 78 64 84 84 88 90 94 98 96 99 98 99 96 87 87 88 86 85 87 86 84 80 75
57 68 82 76 90 96 98 64 55 54 40 39 37 33 35 77 82 76 70 64 65 65 71 71 68 70 84 80 73 85 84 85 94 93 94 94 97 99 98 100 94 93 95 93 91 90 86 87 81
54 61 63 82 69 88 80 70 33 36 42 40 40 37 40 80 84 76 72 66 64 66 74 74 63 71 76 66 76 78 87 82 89 97 92 96 98 99 99 99 93 100 99 97 97 96 92 90 86